When you browse on this site, cookies collect data to enhance your experience and personalize the content and advertising you see.
Visit our Privacy Policy to learn more. By continuing to use the site, you agree to this use of cookies and data.
  • Em Portugal
  • Lista de países
  • Para 7 dias
  • Temperatura da água
  • Mapas de satélite
  • Mapa do tempo
  • Widgets de tempo
  • user-avatar
    Iniciar Sessão

    Previsão horária em Mersin

    Hoje, 25 Março, Segunda-feira

    Tempo Temperatura Precipitação Vento Pressão Humidade
    00:00 +7°C° 0 mm 4 m/s 755 mmHg 36%
    01:00 +8°C° 0 mm 3 m/s 755 mmHg 36%
    02:00 +8°C° 0 mm 3 m/s 754 mmHg 36%
    03:00 +8°C° 0 mm 3 m/s 754 mmHg 35%
    04:00 +8°C° 0 mm 3 m/s 754 mmHg 35%
    05:00 +8°C° 0 mm 2 m/s 754 mmHg 34%
    06:00 +10°C° 0 mm 2 m/s 754 mmHg 32%
    07:00 +13°C° 0 mm 2 m/s 754 mmHg 31%
    08:00 +15°C° 0 mm 1 m/s 754 mmHg 29%
    09:00 +16°C° 0 mm 2 m/s 754 mmHg 29%
    10:00 +18°C° 0 mm 3 m/s 753 mmHg 28%
    11:00 +19°C° 0 mm 3 m/s 753 mmHg 27%
    12:00 +20°C° 0 mm 4 m/s 752 mmHg 27%
    13:00 +21°C° 0 mm 4 m/s 752 mmHg 28%
    14:00 +21°C° 0 mm 4 m/s 752 mmHg 28%
    15:00 +20°C° 0 mm 4 m/s 752 mmHg 32%
    16:00 +20°C° 0 mm 3 m/s 752 mmHg 36%
    17:00 +19°C° 0 mm 3 m/s 752 mmHg 40%
    18:00 +18°C° 0 mm 3 m/s 752 mmHg 38%
    19:00 +16°C° 0 mm 3 m/s 753 mmHg 37%
    20:00 +13°C° 0 mm 3 m/s 754 mmHg 36%
    21:00 +13°C° 0 mm 3 m/s 754 mmHg 34%
    22:00 +13°C° 0 mm 3 m/s 754 mmHg 33%
    23:00 +12°C° 0 mm 4 m/s 754 mmHg 32%

    Amanhã, 26 Março, Terça-feira

    Tempo Temperatura Precipitação Vento Pressão Humidade
    00:00 +12°C° 0 mm 3 m/s 755 mmHg 31%
    01:00 +11°C° 0 mm 3 m/s 755 mmHg 31%
    02:00 +11°C° 0 mm 3 m/s 755 mmHg 30%
    03:00 +11°C° 0 mm 3 m/s 755 mmHg 31%
    04:00 +11°C° 0 mm 3 m/s 756 mmHg 32%
    05:00 +10°C° 0 mm 3 m/s 756 mmHg 32%
    06:00 +12°C° 0 mm 3 m/s 756 mmHg 34%
    07:00 +13°C° 0 mm 3 m/s 757 mmHg 37%
    08:00 +16°C° 0 mm 3 m/s 757 mmHg 39%
    09:00 +17°C° 0 mm 3 m/s 757 mmHg 41%
    10:00 +18°C° 0 mm 3 m/s 757 mmHg 43%
    11:00 +19°C° 0 mm 2 m/s 757 mmHg 45%
    12:00 +19°C° 0 mm 3 m/s 756 mmHg 45%
    13:00 +20°C° 0 mm 3 m/s 756 mmHg 44%
    14:00 +20°C° 0 mm 3 m/s 756 mmHg 43%
    15:00 +19°C° 0 mm 3 m/s 756 mmHg 47%
    16:00 +18°C° 0 mm 4 m/s 756 mmHg 50%
    17:00 +18°C° 0 mm 4 m/s 756 mmHg 53%
    18:00 +16°C° 0 mm 3 m/s 757 mmHg 60%
    19:00 +15°C° 0 mm 2 m/s 758 mmHg 67%
    20:00 +13°C° 0 mm 2 m/s 758 mmHg 74%
    21:00 +13°C° 0 mm 1 m/s 758 mmHg 75%
    22:00 +13°C° 0 mm 1 m/s 759 mmHg 75%
    23:00 +12°C° 0 mm 1 m/s 759 mmHg 76%

    Depois de amanhã, 27 Março, Quarta-feira

    Tempo Temperatura Precipitação Vento Pressão Humidade
    00:00 +12°C° 0 mm 2 m/s 759 mmHg 76%
    01:00 +12°C° 0 mm 2 m/s 759 mmHg 76%
    02:00 +11°C° 0 mm 3 m/s 759 mmHg 76%
    03:00 +10°C° 0 mm 3 m/s 759 mmHg 77%
    04:00 +10°C° 0 mm 3 m/s 759 mmHg 78%
    05:00 +10°C° 0 mm 3 m/s 759 mmHg 79%
    06:00 +11°C° 0 mm 3 m/s 759 mmHg 74%
    07:00 +13°C° 0 mm 3 m/s 759 mmHg 69%
    08:00 +14°C° 0 mm 3 m/s 760 mmHg 64%
    09:00 +16°C° 0 mm 3 m/s 760 mmHg 63%
    10:00 +17°C° 0 mm 3 m/s 760 mmHg 61%
    11:00 +18°C° 0 mm 3 m/s 760 mmHg 60%
    12:00 +18°C° 0.1 mm 3 m/s 760 mmHg 61%
    13:00 +18°C° 0.1 mm 3 m/s 760 mmHg 62%
    14:00 +19°C° 0.1 mm 3 m/s 760 mmHg 63%
    15:00 +18°C° 0.1 mm 3 m/s 760 mmHg 65%
    16:00 +18°C° 0.1 mm 3 m/s 760 mmHg 66%
    17:00 +17°C° 0.1 mm 2 m/s 760 mmHg 68%
    18:00 +16°C° 0 mm 2 m/s 760 mmHg 72%
    19:00 +15°C° 0 mm 2 m/s 761 mmHg 76%
    20:00 +14°C° 0 mm 1 m/s 761 mmHg 80%
    21:00 +14°C° 0 mm 1 m/s 761 mmHg 80%
    22:00 +13°C° 0 mm 1 m/s 761 mmHg 79%
    23:00 +13°C° 0 mm 1 m/s 762 mmHg 79%

    28 Março, Quinta-feira

    Tempo Temperatura Precipitação Vento Pressão Humidade
    00:00 +12°C° 0 mm 1 m/s 762 mmHg 79%
    01:00 +12°C° 0 mm 1 m/s 762 mmHg 78%
    02:00 +12°C° 0 mm 2 m/s 762 mmHg 78%
    03:00 +12°C° 0 mm 2 m/s 762 mmHg 78%
    04:00 +12°C° 0 mm 2 m/s 762 mmHg 78%
    05:00 +10°C° 0 mm 2 m/s 762 mmHg 78%
    06:00 +13°C° 0 mm 2 m/s 763 mmHg 73%
    07:00 +15°C° 0 mm 2 m/s 763 mmHg 68%
    08:00 +16°C° 0 mm 2 m/s 763 mmHg 64%
    09:00 +17°C° 0 mm 2 m/s 763 mmHg 63%
    10:00 +18°C° 0 mm 2 m/s 763 mmHg 62%
    11:00 +19°C° 0 mm 2 m/s 763 mmHg 61%
    12:00 +19°C° 0.2 mm 2 m/s 762 mmHg 62%
    13:00 +19°C° 0.2 mm 3 m/s 762 mmHg 64%
    14:00 +19°C° 0.2 mm 3 m/s 761 mmHg 65%
    15:00 +18°C° 0.5 mm 3 m/s 761 mmHg 69%
    16:00 +18°C° 0.5 mm 3 m/s 761 mmHg 74%
    17:00 +17°C° 0.5 mm 2 m/s 761 mmHg 78%
    18:00 +17°C° 0.4 mm 2 m/s 761 mmHg 80%
    19:00 +16°C° 0.4 mm 1 m/s 761 mmHg 81%
    20:00 +16°C° 0.4 mm 1 m/s 761 mmHg 83%
    21:00 +15°C° 0.1 mm 1 m/s 761 mmHg 83%
    22:00 +15°C° 0.1 mm 1 m/s 761 mmHg 83%
    23:00 +14°C° 0.1 mm 1 m/s 761 mmHg 83%

    29 Março, Sexta-feira

    Tempo Temperatura Precipitação Vento Pressão Humidade
    00:00 +14°C° 0 mm 2 m/s 760 mmHg 84%
    01:00 +14°C° 0 mm 2 m/s 760 mmHg 85%
    02:00 +12°C° 0 mm 3 m/s 760 mmHg 86%
    03:00 +12°C° 0 mm 3 m/s 760 mmHg 85%
    04:00 +12°C° 0 mm 3 m/s 760 mmHg 84%
    05:00 +12°C° 0 mm 3 m/s 760 mmHg 83%
    06:00 +12°C° 0.4 mm 3 m/s 759 mmHg 82%
    07:00 +13°C° 0.4 mm 3 m/s 759 mmHg 80%
    08:00 +13°C° 0.4 mm 3 m/s 759 mmHg 79%
    09:00 +13°C° 0.4 mm 3 m/s 759 mmHg 79%
    10:00 +13°C° 0.4 mm 3 m/s 759 mmHg 79%
    11:00 +13°C° 0.4 mm 3 m/s 758 mmHg 79%
    12:00 +13°C° 0.8 mm 3 m/s 758 mmHg 79%
    13:00 +13°C° 0.8 mm 3 m/s 757 mmHg 79%
    14:00 +13°C° 0.8 mm 3 m/s 757 mmHg 78%
    15:00 +13°C° 0.6 mm 3 m/s 756 mmHg 79%
    16:00 +13°C° 0.6 mm 3 m/s 756 mmHg 80%
    17:00 +13°C° 0.6 mm 4 m/s 756 mmHg 81%
    18:00 +12°C° 0.5 mm 4 m/s 756 mmHg 82%
    19:00 +12°C° 0.5 mm 4 m/s 756 mmHg 82%
    20:00 +12°C° 0.5 mm 4 m/s 756 mmHg 83%
    21:00 +12°C° 0.4 mm 4 m/s 755 mmHg 82%
    22:00 +12°C° 0.4 mm 4 m/s 755 mmHg 82%
    23:00 +12°C° 0.4 mm 5 m/s 754 mmHg 82%

    30 Março, Sábado

    Tempo Temperatura Precipitação Vento Pressão Humidade
    00:00 +12°C° 0.1 mm 4 m/s 754 mmHg 82%
    01:00 +12°C° 0.1 mm 4 m/s 753 mmHg 81%
    02:00 +12°C° 0.1 mm 4 m/s 753 mmHg 81%
    03:00 +12°C° 0.2 mm 4 m/s 752 mmHg 81%
    04:00 +12°C° 0.2 mm 4 m/s 752 mmHg 80%
    05:00 +12°C° 0.2 mm 5 m/s 751 mmHg 80%
    06:00 +12°C° 0.4 mm 5 m/s 751 mmHg 78%
    07:00 +13°C° 0.4 mm 6 m/s 751 mmHg 77%
    08:00 +14°C° 0.4 mm 6 m/s 751 mmHg 76%
    09:00 +14°C° 0.9 mm 7 m/s 751 mmHg 74%
    10:00 +15°C° 0.9 mm 7 m/s 750 mmHg 73%
    11:00 +15°C° 0.9 mm 7 m/s 750 mmHg 71%
    12:00 +15°C° 2.9 mm 7 m/s 749 mmHg 77%
    13:00 +14°C° 2.9 mm 7 m/s 749 mmHg 82%
    14:00 +14°C° 2.9 mm 7 m/s 748 mmHg 87%
    15:00 +14°C° 2.3 mm 7 m/s 748 mmHg 88%
    16:00 +14°C° 2.3 mm 6 m/s 748 mmHg 88%
    17:00 +14°C° 2.3 mm 6 m/s 748 mmHg 89%
    18:00 +13°C° 3 mm 6 m/s 748 mmHg 90%
    19:00 +13°C° 3 mm 5 m/s 748 mmHg 91%
    20:00 +13°C° 3 mm 5 m/s 749 mmHg 92%
    21:00 +13°C° 3.4 mm 4 m/s 749 mmHg 93%
    22:00 +13°C° 3.4 mm 4 m/s 749 mmHg 94%
    23:00 +13°C° 3.4 mm 3 m/s 749 mmHg 95%
    Mostrar mais